LiveATC.Net - Listen to live air traffic control over the Internet!


ICAO: ENRY  IATA: RYG   Airport: Moss Airport - Rygge
City: Moss
Country: Norway   Continent: Europe
ENRY METAR Weather: ENRY 161350Z 26002KT 9999 -DZ BKN008 03/02 Q0996 TEMPO BKN012
ENRY Flight Activity (FlightAware)

ENOR Sector 8
Feed Status: UP   Listeners: 0
Listen in your browser - HTML5 player (in browser, HTML5)
Click here to listen with your own player (launches your MP3 player)
Archive Access: ENOR Sector 8
FacilityFrequency
Norway Center (FIR) Sector 8118.875

ENRY Tower
Feed Status: UP   Listeners: 0
Listen in your browser - HTML5 player (in browser, HTML5)
Click here to listen with your own player (launches your MP3 player)
Archive Access: ENRY Tower
FacilityFrequency
Rygge Tower119.500

NOTICE

Unauthorized use prohibited. See LiveATC.net Terms of Service


Airport/ARTCC Code
Frequency Search
(e.g., 124.400, 128.75)
Site-wide search
 


Browse Feeds
Top 50 Feeds
Coverage Map
Bad Weather Areas

LiveATC FAQ
Offer LiveATC feed
Contact LiveATC.net
Press Inquiries

LiveATC on iPhone
LiveATC on Android

Windows Phone
Windows 8/10

LiveATC Mobile
(Mobile browser)

ATC Audio Archives
Interesting Recordings

LiveATC Forums


Home Page
About LiveATC.net
Make a Donation
Terms of Use
Privacy Policy

Canadian Air Freqs

AIRMETs/SIGMETs

FAA Airport Status
Nat'l Airspace Status
Arrival Demand Charts


Server Software By:
Icecast.org
Liquidsoap